SCP
-0 -0 0 0 -0 -0 -1 -1 -1 -1 -2 0 0 -0 0 0 0 -0 -0 -0 -0 0 -0 -0 -0 0 0 1 1 1 1 1 0
0 -0 0 0 -0 -0 -0 -1 -1 -1 -2 -2 -1 -0 1 0 0 0 -0 -0 -0 0 -0 0 -0 0 1 0 1 1 1 0 0
0 -0 0 0 0 -0 -0 -1 -1 -1 -2 -3 -1 -1 0 1 0 0 0 -0 -0 -0 0 0 -0 0 1 1 1 1 0 0 0
0 0 0 0 0 -0 0 0 -1 -1 -1 -1 -1 -1 -0 0 0 -0 -1 -0 -0 -0 0 1 -0 0 1 1 1 1 1 0 0
0 0 0 0 0 0 -0 -0 -1 -1 -1 -1 -1 -1 -0 -0 -0 -1 -1 -1 -0 1 1 1 1 1 1 1 1 1 1 0 0
0 -0 0 0 0 1 -0 -0 -0 -1 -1 -1 -1 -1 -1 -1 -1 -1 -1 -1 -0 0 -0 1 1 2 2 3 2 1 1 1 1
0 0 0 0 0 0 0 -0 -0 -0 -1 -0 -0 -0 -1 -1 -1 -1 -1 -0 -0 -0 -1 1 2 3 4 3 2 2 1 2 2
0 0 1 2 1 1 2 2 1 1 1 -0 -0 -0 -1 -1 -0 -1 -0 -0 -0 -0 1 2 3 4 5 6 4 4 2 2 2
0 0 0 1 1 1 1 2 3 1 2 1 1 -0 -0 0 0 -0 -0 0 1 1 1 3 4 4 6 6 5 2 0 2 3
0 0 0 0 2 2 1 3 4 3 2 3 2 1 0 0 0 -1 -0 1 1 2 3 4 4 4 5 5 4 0 0 0 2
0 0 0 1 0 1 2 1 3 5 4 4 3 2 2 1 0 0 1 1 1 2 4 4 4 5 4 4 3 0 0 0 1
0 0 0 1 0 0 2 2 4 5 6 4 4 3 4 3 2 3 3 3 3 3 3 3 4 3 3 3 2 0 0 0 0
0 0 0 1 0 0 1 5 4 8 6 5 4 4 5 7 6 6 5 5 4 4 4 3 3 3 3 2 1 0 0 0 0
0 0 0 0 4 5 3 7 6 7 9 7 6 7 7 9 7 6 5 5 4 5 3 3 4 4 2 1 1 1 0 0 0
1 2 0 2 7 9 6 9 9 12 10 10 9 8 7 7 7 6 5 5 7 7 4 4 5 4 2 2 1 1 0 0 0
2 2 5 4 5 9 11 19 15 17 17 11 10 8 8 8 7 8 6 6 9 5 4 3 3 2 2 2 3 2 0 0 0
3 5 7 8 10 11 17 20 20 23 15 11 10 11 11 10 9 7 5 4 3 3 3 3 2 2 3 4 4 2 0 0 0
8 8 12 13 12 12 18 20 21 22 16 13 14 9 8 7 5 5 1 0 1 2 0 1 3 5 4 3 3 2 0 1 0
6 7 6 7 7 7 8 8 8 8 8 6 5 4 4 4 4 2 0 0 0 0 0 0 0 0 1 0 0 0 0 0 0
3 5 7 6 5 5 4 3 3 3 3 3 1 2 3 2 2 2 2 2 0 0 0 0 0 0 0 0 0 0 0 0 0
Wind_Speed_500mb
77 72 65 70 78 79 84 90 86 82 83 82 75 68 73 61 65 59 60 51 40 43 36 36 34 34 29 29 27 37 25 20 17
39 78 74 74 76 81 77 87 93 93 84 82 80 72 72 73 64 76 67 65 51 39 41 36 47 43 43 37 35 32 26 27 24
44 59 68 71 70 76 78 78 88 91 91 86 85 80 73 77 74 71 75 65 61 58 46 43 45 52 53 46 41 39 34 31 29
63 48 55 71 76 76 80 75 80 89 90 89 87 85 79 79 79 77 72 72 69 67 62 58 49 55 55 48 46 44 40 35 29
48 43 51 60 74 77 83 87 83 88 87 91 93 90 83 82 82 81 82 81 79 77 72 70 73 71 66 58 53 49 46 38 46
61 66 49 43 65 80 86 89 88 89 92 92 88 89 88 85 88 85 86 87 83 84 82 80 78 80 76 68 63 57 54 41 36
26 17 27 29 31 74 86 96 99 97 95 92 91 88 88 91 92 91 90 87 85 83 85 85 84 81 81 76 70 64 60 49 38
22 23 32 38 29 28 80 91 101 102 95 95 88 90 90 92 93 91 90 87 86 83 83 86 85 81 82 79 75 71 68 60 42
40 42 29 35 38 35 41 72 91 106 98 96 92 92 96 87 85 87 89 86 82 80 79 86 86 86 81 83 81 76 72 71 48
46 60 50 51 47 50 52 50 78 97 105 92 94 91 95 92 86 88 87 80 76 79 80 81 81 79 76 78 78 76 72 64 47
42 33 48 41 38 39 50 54 63 73 91 93 88 95 87 88 90 91 87 77 74 73 78 80 80 77 70 67 73 75 70 54 40
52 59 52 59 50 60 47 50 65 73 74 93 94 89 91 86 87 86 81 75 72 69 66 70 71 67 61 61 71 65 73 56 52
58 59 54 47 53 56 69 66 70 76 85 82 92 92 95 77 74 75 75 72 66 61 62 57 54 57 58 55 58 63 60 54 54
63 58 66 55 50 55 47 73 75 79 82 80 81 75 73 73 74 74 68 63 58 57 53 51 50 50 48 47 44 52 56 51 42
24 24 35 40 34 19 44 69 73 79 77 68 67 64 63 65 68 68 69 61 53 46 41 44 42 39 40 36 37 35 46 40 35
5 2 1 8 21 22 35 49 60 71 63 61 63 63 62 62 61 57 50 48 48 44 42 36 35 36 35 27 30 38 40 35 35
11 21 26 20 34 39 34 39 47 54 56 59 60 63 65 64 59 55 44 39 39 38 38 35 26 23 25 30 29 33 33 24 29
35 34 34 32 35 37 33 40 50 54 62 63 66 60 58 55 47 44 43 38 30 30 31 29 23 22 25 23 25 27 15 17 20
44 47 44 41 37 35 33 36 39 44 52 58 60 55 48 42 46 37 34 39 37 31 27 29 25 22 19 20 18 15 11 12 13
41 44 43 41 36 33 33 34 37 38 44 41 33 38 39 33 37 32 34 39 32 33 30 26 25 24 21 15 9 16 15 13 12
Wind_Direction_500mb
195 192 194 193 197 199 198 197 199 201 207 213 218 218 214 215 209 212 211 209 211 218 210 223 237 230 231 217 198 207 204 184 179
220 181 189 192 197 198 199 198 199 200 205 213 218 221 217 217 216 213 214 213 202 212 207 216 225 232 241 228 221 211 208 200 176
230 187 190 188 195 197 198 199 201 202 204 213 218 221 223 218 222 218 218 216 215 215 210 211 229 234 239 234 217 220 219 200 199
228 224 190 188 191 196 196 198 199 201 205 209 216 222 223 221 223 225 221 218 217 224 216 211 226 235 241 238 225 221 215 204 212
219 223 226 200 189 189 190 193 197 199 201 203 215 219 221 221 223 226 228 223 223 225 230 222 222 231 239 240 232 225 218 204 208
213 222 221 207 190 185 190 193 196 198 202 206 208 213 218 219 223 227 230 232 227 229 233 233 234 235 237 240 237 231 223 219 226
210 185 210 183 185 186 202 195 197 199 201 204 207 209 213 219 223 227 231 233 235 231 233 237 239 239 242 241 241 235 227 223 234
229 232 186 180 195 217 193 197 199 198 200 200 205 207 214 218 223 227 229 230 233 235 233 239 242 243 242 240 237 236 230 225 237
211 216 222 196 203 211 222 203 206 202 198 203 200 209 215 220 221 224 227 228 227 230 229 234 241 243 242 240 240 240 234 227 235
220 206 212 232 203 221 217 214 212 205 201 201 202 209 214 216 220 223 225 226 227 226 228 237 241 245 241 242 242 242 234 232 230
279 238 217 223 239 221 220 207 202 202 202 198 205 206 213 210 215 219 219 223 226 229 232 234 241 241 245 240 238 238 229 226 221
256 253 265 232 237 248 235 209 202 203 201 201 203 208 208 209 212 211 214 221 228 232 230 235 236 245 248 242 239 240 235 236 236
257 257 256 247 238 242 259 216 198 203 202 203 202 206 206 203 201 206 217 225 223 226 231 235 234 243 246 247 247 234 235 245 257
242 262 248 253 241 228 230 200 192 198 195 199 199 201 195 196 197 205 217 221 221 225 223 228 232 235 241 249 251 237 239 248 250
267 272 256 228 214 215 197 192 190 191 189 191 188 191 185 186 197 205 211 215 217 208 215 220 218 226 235 241 242 232 235 243 257
190 308 117 209 198 180 170 172 193 183 180 182 179 175 177 184 190 192 206 211 203 203 206 216 217 225 234 231 226 230 239 247 252
122 109 104 123 127 131 145 162 163 168 167 167 170 169 168 175 183 188 196 200 206 202 207 210 213 207 214 223 231 244 252 238 236
96 97 101 115 122 121 129 145 151 154 155 161 159 168 172 179 178 181 189 189 184 192 195 194 197 207 223 216 221 228 225 234 229
77 92 103 105 103 114 128 146 156 160 159 174 176 175 173 172 165 171 175 176 172 175 180 191 198 209 222 206 207 204 198 200 203
72 88 94 96 110 118 120 129 141 151 164 172 153 154 165 160 164 160 172 175 186 177 174 179 195 198 194 186 201 190 197 209 200
Wind_Speed_850mb
77 72 65 70 78 79 84 90 86 82 83 82 75 68 73 61 65 59 60 51 40 43 36 36 34 34 29 29 27 37 25 20 17
39 78 74 74 76 81 77 87 93 93 84 82 80 72 72 73 64 76 67 65 51 39 41 36 47 43 43 37 35 32 26 27 24
44 59 68 71 70 76 78 78 88 91 91 86 85 80 73 77 74 71 75 65 61 58 46 43 45 52 53 46 41 39 34 31 29
63 48 55 71 76 76 80 75 80 89 90 89 87 85 79 79 79 77 72 72 69 67 62 58 49 55 55 48 46 44 40 35 29
48 43 51 60 74 77 83 87 83 88 87 91 93 90 83 82 82 81 82 81 79 77 72 70 73 71 66 58 53 49 46 38 46
61 66 49 43 65 80 86 89 88 89 92 92 88 89 88 85 88 85 86 87 83 84 82 80 78 80 76 68 63 57 54 41 36
26 17 27 29 31 74 86 96 99 97 95 92 91 88 88 91 92 91 90 87 85 83 85 85 84 81 81 76 70 64 60 49 38
22 23 32 38 29 28 80 91 101 102 95 95 88 90 90 92 93 91 90 87 86 83 83 86 85 81 82 79 75 71 68 60 42
40 42 29 35 38 35 41 72 91 106 98 96 92 92 96 87 85 87 89 86 82 80 79 86 86 86 81 83 81 76 72 71 48
46 60 50 51 47 50 52 50 78 97 105 92 94 91 95 92 86 88 87 80 76 79 80 81 81 79 76 78 78 76 72 64 47
42 33 48 41 38 39 50 54 63 73 91 93 88 95 87 88 90 91 87 77 74 73 78 80 80 77 70 67 73 75 70 54 40
52 59 52 59 50 60 47 50 65 73 74 93 94 89 91 86 87 86 81 75 72 69 66 70 71 67 61 61 71 65 73 56 52
58 59 54 47 53 56 69 66 70 76 85 82 92 92 95 77 74 75 75 72 66 61 62 57 54 57 58 55 58 63 60 54 54
63 58 66 55 50 55 47 73 75 79 82 80 81 75 73 73 74 74 68 63 58 57 53 51 50 50 48 47 44 52 56 51 42
24 24 35 40 34 19 44 69 73 79 77 68 67 64 63 65 68 68 69 61 53 46 41 44 42 39 40 36 37 35 46 40 35
5 2 1 8 21 22 35 49 60 71 63 61 63 63 62 62 61 57 50 48 48 44 42 36 35 36 35 27 30 38 40 35 35
11 21 26 20 34 39 34 39 47 54 56 59 60 63 65 64 59 55 44 39 39 38 38 35 26 23 25 30 29 33 33 24 29
35 34 34 32 35 37 33 40 50 54 62 63 66 60 58 55 47 44 43 38 30 30 31 29 23 22 25 23 25 27 15 17 20
44 47 44 41 37 35 33 36 39 44 52 58 60 55 48 42 46 37 34 39 37 31 27 29 25 22 19 20 18 15 11 12 13
41 44 43 41 36 33 33 34 37 38 44 41 33 38 39 33 37 32 34 39 32 33 30 26 25 24 21 15 9 16 15 13 12
Wind_Direction_850mb
195 192 194 193 197 199 198 197 199 201 207 213 218 218 214 215 209 212 211 209 211 218 210 223 237 230 231 217 198 207 204 184 179
220 181 189 192 197 198 199 198 199 200 205 213 218 221 217 217 216 213 214 213 202 212 207 216 225 232 241 228 221 211 208 200 176
230 187 190 188 195 197 198 199 201 202 204 213 218 221 223 218 222 218 218 216 215 215 210 211 229 234 239 234 217 220 219 200 199
228 224 190 188 191 196 196 198 199 201 205 209 216 222 223 221 223 225 221 218 217 224 216 211 226 235 241 238 225 221 215 204 212
219 223 226 200 189 189 190 193 197 199 201 203 215 219 221 221 223 226 228 223 223 225 230 222 222 231 239 240 232 225 218 204 208
213 222 221 207 190 185 190 193 196 198 202 206 208 213 218 219 223 227 230 232 227 229 233 233 234 235 237 240 237 231 223 219 226
210 185 210 183 185 186 202 195 197 199 201 204 207 209 213 219 223 227 231 233 235 231 233 237 239 239 242 241 241 235 227 223 234
229 232 186 180 195 217 193 197 199 198 200 200 205 207 214 218 223 227 229 230 233 235 233 239 242 243 242 240 237 236 230 225 237
211 216 222 196 203 211 222 203 206 202 198 203 200 209 215 220 221 224 227 228 227 230 229 234 241 243 242 240 240 240 234 227 235
220 206 212 232 203 221 217 214 212 205 201 201 202 209 214 216 220 223 225 226 227 226 228 237 241 245 241 242 242 242 234 232 230
279 238 217 223 239 221 220 207 202 202 202 198 205 206 213 210 215 219 219 223 226 229 232 234 241 241 245 240 238 238 229 226 221
256 253 265 232 237 248 235 209 202 203 201 201 203 208 208 209 212 211 214 221 228 232 230 235 236 245 248 242 239 240 235 236 236
257 257 256 247 238 242 259 216 198 203 202 203 202 206 206 203 201 206 217 225 223 226 231 235 234 243 246 247 247 234 235 245 257
242 262 248 253 241 228 230 200 192 198 195 199 199 201 195 196 197 205 217 221 221 225 223 228 232 235 241 249 251 237 239 248 250
267 272 256 228 214 215 197 192 190 191 189 191 188 191 185 186 197 205 211 215 217 208 215 220 218 226 235 241 242 232 235 243 257
190 308 117 209 198 180 170 172 193 183 180 182 179 175 177 184 190 192 206 211 203 203 206 216 217 225 234 231 226 230 239 247 252
122 109 104 123 127 131 145 162 163 168 167 167 170 169 168 175 183 188 196 200 206 202 207 210 213 207 214 223 231 244 252 238 236
96 97 101 115 122 121 129 145 151 154 155 161 159 168 172 179 178 181 189 189 184 192 195 194 197 207 223 216 221 228 225 234 229
77 92 103 105 103 114 128 146 156 160 159 174 176 175 173 172 165 171 175 176 172 175 180 191 198 209 222 206 207 204 198 200 203
72 88 94 96 110 118 120 129 141 151 164 172 153 154 165 160 164 160 172 175 186 177 174 179 195 198 194 186 201 190 197 209 200